Fosston, MN

12:19 PM CDT on March 25, 2017 (GMT -0500)
Fosston Municipal

Weather History for KFSE - October, 2012

Change the Weather History Date:

Sunday, October 14, 2012

  Actual Average Record
Temperature  
Mean Temperature 40 °F -  
Max Temperature 55 °F 54 °F 82 °F (1962)
Min Temperature 26 °F 34 °F 17 °F (1992)
Degree Days  
Heating Degree Days 24    
Moisture  
Dew Point 31 °F    
Average Humidity 75    
Maximum Humidity 93    
Minimum Humidity 38    
Precipitation  
Precipitation 0.00 in - - ()
Sea Level Pressure  
Sea Level Pressure 29.89 in    
Wind  
Wind Speed 2 mph (NW)    
Max Wind Speed 12 mph    
Max Gust Speed -    
Visibility 10 miles    
Events      
Averages and records for this station are not official NWS values.
T = Trace of Precipitation, MM = Missing Value Source: NWS Daily Summary

Daily Weather History Graph

Daily Weather History Graph

Search for Another Location

Airport or City:

Trip Planner

Search our weather history database for the weather conditions in past years. The results will help you decide how hot, cold, wet, or windy it might be!

Date:

Astronomy

Oct. 14, 2012 Rise Set
Actual Time 7:41 AM CDT 6:35 PM CDT
Civil Twilight 7:10 AM CDT 7:06 PM CDT
Nautical Twilight 6:34 AM CDT 7:42 PM CDT
Astronomical Twilight 5:58 AM CDT 8:18 PM CDT
Moon 6:40 AM CDT (10/14) 5:55 PM CDT (10/14)
Length of Visible Light 11h 56m
Length of Day
10h 54m
Waning Crescent, 1% of the Moon is Illuminated
Oct 14
Waning Crescent
Oct 15
New
Oct 21
First Quarter
Oct 29
Full
Nov 6
Last Quarter

Hourly Weather History & Observations

Time (CDT) Temp. Windchill Dew Point Humidity Pressure Visibility Wind Dir Wind Speed Gust Speed Precip Events Conditions
12:15 AM 33.8 °F - 30.2 °F 87% 29.82 in 10.0 mi Calm Calm - N/A   Clear
12:35 AM 33.8 °F - 28.4 °F 81% 29.82 in 10.0 mi Calm Calm - N/A   Clear
12:55 AM 32.0 °F - 28.4 °F 87% 29.82 in 10.0 mi Calm Calm - N/A   Clear
1:15 AM 32.0 °F - 28.4 °F 87% 29.83 in 10.0 mi Calm Calm - N/A   Clear
1:35 AM 32.0 °F - 28.4 °F 87% 29.83 in 10.0 mi Calm Calm - N/A   Clear
1:55 AM 32.0 °F 24.2 °F 28.4 °F 87% 29.82 in 10.0 mi NNW 9.2 mph - N/A   Clear
2:35 AM 33.8 °F - 28.4 °F 81% 29.84 in 10.0 mi Calm Calm - N/A   Clear
2:55 AM 33.8 °F - 28.4 °F 81% 29.84 in 10.0 mi Calm Calm - N/A   Clear
3:15 AM 33.8 °F - 28.4 °F 81% 29.84 in 10.0 mi Calm Calm - N/A   Clear
3:35 AM 33.8 °F - 28.4 °F 81% 29.84 in 10.0 mi Calm Calm - N/A   Clear
3:55 AM 33.8 °F - 28.4 °F 81% 29.85 in 10.0 mi Calm Calm - N/A   Clear
4:15 AM 32.0 °F - 28.4 °F 87% 29.85 in 10.0 mi Calm Calm - N/A   Clear
4:35 AM 30.2 °F - 28.4 °F 93% 29.86 in 10.0 mi Calm Calm - N/A   Clear
4:55 AM 30.2 °F - 28.4 °F 93% 29.86 in 10.0 mi Calm Calm - N/A   Clear
5:15 AM 30.2 °F - 28.4 °F 93% 29.86 in 10.0 mi Calm Calm - N/A   Clear
5:35 AM 30.2 °F - 28.4 °F 93% 29.87 in 10.0 mi Calm Calm - N/A   Clear
5:55 AM 30.2 °F - 28.4 °F 93% 29.88 in 10.0 mi Calm Calm - N/A   Clear
6:15 AM 30.2 °F - 26.6 °F 86% 29.88 in 10.0 mi Calm Calm - N/A   Clear
6:35 AM 30.2 °F - 26.6 °F 86% 29.90 in 10.0 mi Calm Calm - N/A   Clear
6:55 AM 28.4 °F - 26.6 °F 93% 29.89 in 10.0 mi Calm Calm - N/A   Clear
7:15 AM 28.4 °F - 26.6 °F 93% 29.89 in 10.0 mi Calm Calm - N/A   Clear
7:35 AM 28.4 °F - 24.8 °F 86% 29.89 in 10.0 mi Calm Calm - N/A   Clear
7:55 AM 26.6 °F - 24.8 °F 93% 29.89 in 10.0 mi Calm Calm - N/A   Clear
8:15 AM 28.4 °F - 26.6 °F 93% 29.89 in 10.0 mi Calm Calm - N/A   Scattered Clouds
8:35 AM 28.4 °F - 26.6 °F 93% 29.90 in 10.0 mi Calm Calm - N/A   Mostly Cloudy
8:55 AM 30.2 °F - 28.4 °F 93% 29.91 in 10.0 mi Calm Calm - N/A   Mostly Cloudy
9:15 AM 30.2 °F - 28.4 °F 93% 29.91 in 10.0 mi Calm Calm - N/A   Mostly Cloudy
9:35 AM 32.0 °F - 30.2 °F 93% 29.91 in 10.0 mi Calm Calm - N/A   Scattered Clouds
9:55 AM 33.8 °F 27.0 °F 32.0 °F 93% 29.91 in 10.0 mi North 8.1 mph - N/A   Scattered Clouds
10:15 AM 35.6 °F - 32.0 °F 87% 29.91 in 10.0 mi Calm Calm - N/A   Scattered Clouds
10:35 AM 41.0 °F 39.0 °F 33.8 °F 76% 29.91 in 10.0 mi North 3.5 mph - N/A   Clear
10:55 AM 44.6 °F - 33.8 °F 66% 29.91 in 10.0 mi Calm Calm - N/A   Clear
11:15 AM 46.4 °F 42.4 °F 33.8 °F 62% 29.90 in 10.0 mi NW 8.1 mph - N/A   Clear
11:36 AM 48.2 °F - 33.8 °F 58% 29.90 in 10.0 mi NW 8.1 mph - N/A   Clear
11:55 AM 48.2 °F - 32.0 °F 54% 29.90 in 10.0 mi NW 11.5 mph - N/A   Clear
12:16 PM 50.0 °F - 32.0 °F 50% 29.90 in 10.0 mi NNW 9.2 mph - N/A   Clear
12:35 PM 51.8 °F - 32.0 °F 47% 29.89 in 10.0 mi NNW 9.2 mph - N/A   Clear
12:55 PM 51.8 °F - 30.2 °F 44% 29.89 in 10.0 mi NW 10.4 mph - N/A   Clear
1:35 PM 53.6 °F - 32.0 °F 44% 29.89 in 10.0 mi Calm Calm - N/A   Clear
1:55 PM 53.6 °F - 32.0 °F 44% 29.89 in 10.0 mi NNW 9.2 mph - N/A   Clear
2:16 PM 53.6 °F - 30.2 °F 41% 29.88 in 10.0 mi WNW 9.2 mph - N/A   Clear
2:35 PM 55.4 °F - 30.2 °F 38% 29.88 in 10.0 mi Calm Calm - N/A   Clear
2:55 PM 55.4 °F - 32.0 °F 41% 29.88 in 10.0 mi NW 10.4 mph - N/A   Clear
3:16 PM 55.4 °F - 32.0 °F 41% 29.88 in 10.0 mi NNW 9.2 mph - N/A   Clear
3:35 PM 55.4 °F - 32.0 °F 41% 29.88 in 10.0 mi NW 5.8 mph - N/A   Clear
3:55 PM 53.6 °F - 32.0 °F 44% 29.89 in 10.0 mi NW 11.5 mph - N/A   Clear
4:15 PM 55.4 °F - 33.8 °F 44% 29.88 in 10.0 mi WNW 8.1 mph - N/A   Clear
4:35 PM 53.6 °F - 33.8 °F 47% 29.89 in 10.0 mi NNW 6.9 mph - N/A   Clear
4:55 PM 53.6 °F - 33.8 °F 47% 29.89 in 10.0 mi NW 5.8 mph - N/A   Clear
5:15 PM 51.8 °F - 33.8 °F 50% 29.89 in 10.0 mi Calm Calm - N/A   Clear
5:35 PM 51.8 °F - 33.8 °F 50% 29.90 in 10.0 mi Calm Calm - N/A   Clear
5:55 PM 50.0 °F - 33.8 °F 54% 29.90 in 10.0 mi WNW 6.9 mph - N/A   Clear
6:15 PM 48.2 °F - 33.8 °F 58% 29.90 in 10.0 mi WNW 8.1 mph - N/A   Clear
6:35 PM 44.6 °F 41.4 °F 33.8 °F 66% 29.90 in 10.0 mi WNW 5.8 mph - N/A   Clear
6:55 PM 42.8 °F - 33.8 °F 70% 29.90 in 10.0 mi Calm Calm - N/A   Clear
7:15 PM 42.8 °F - 33.8 °F 70% 29.90 in 10.0 mi Calm Calm - N/A   Clear
7:35 PM 41.0 °F 39.0 °F 33.8 °F 76% 29.91 in 10.0 mi WNW 3.5 mph - N/A   Clear
7:55 PM 39.2 °F 35.0 °F 33.8 °F 81% 29.92 in 10.0 mi WNW 5.8 mph - N/A   Clear
8:15 PM 39.2 °F - 33.8 °F 81% 29.92 in 10.0 mi Calm Calm - N/A   Clear
8:35 PM 37.4 °F - 33.8 °F 87% 29.92 in 10.0 mi Calm Calm - N/A   Clear
8:55 PM 35.6 °F - 33.8 °F 93% 29.92 in 10.0 mi Calm Calm - N/A   Clear
9:15 PM 35.6 °F - 33.8 °F 93% 29.92 in 10.0 mi Calm Calm - N/A   Clear
9:35 PM 33.8 °F - 30.2 °F 87% 29.92 in 10.0 mi Calm Calm - N/A   Clear
9:55 PM 33.8 °F - 30.2 °F 87% 29.92 in 10.0 mi Calm Calm - N/A   Clear
10:15 PM 33.8 °F - 32.0 °F 93% 29.93 in 10.0 mi Calm Calm - N/A   Clear
10:35 PM 33.8 °F - 32.0 °F 93% 29.92 in 10.0 mi Calm Calm - N/A   Clear
10:55 PM 32.0 °F - 30.2 °F 93% 29.92 in 10.0 mi Calm Calm - N/A   Clear
11:15 PM 30.2 °F - 28.4 °F 93% 29.91 in 10.0 mi Calm Calm - N/A   Clear
11:35 PM 30.2 °F - 28.4 °F 93% 29.90 in 10.0 mi Calm Calm - N/A   Clear
11:55 PM 28.4 °F - 26.6 °F 93% 29.91 in 10.0 mi Calm Calm - N/A   Clear